Das Wetter in  D-61279 Heinzenberg / Taunus





Wetter Minimum- & Maximum-Werte im Mai 2015

Standort: Heinzenberg / Taunus - Höhe 297 m         8° 24' 1" Ost 50° 21' 51" Nord
(   3-stündige Aktualisierung    letzte Aktualisierung um 20:46 am 31.05.2015  )


Messgrösse

Minimum

Maximum

Durchschnitt

Temperatur West /
Luftfeuchte West
Anklicken für Monats-Diagramm

0,5 °C

06:49
02.05.2015

32 %

16:39
08.05.2015

28,6 °C

15:23
12.05.2015

91 %

09:58
01.05.2015

Temp

13,4 °C

Feuchte

65 %

Temperatur Ost /
Luftfeuchte Ost
Anklicken für Monats-Diagramm

1,0 °C

06:49
02.05.2015

--

--
--

27,6 °C

15:18
12.05.2015

--

--
--

13,3 °C

--

Luftdruck Anklicken für Monats-Diagramm

999,3 hPa

07:52
05.05.2015

1028,0 hPa

06:32
22.05.2015

1015,9 hPa

Taupunkt

-2,0 °C

06:49
02.05.2015

16,8 °C

14:48
12.05.2015

6,5 °C

Windchill
( gefühlte Temperatur )

-3,8 °C

05:34
19.05.2015

27,0 °C

15:23
12.05.2015

11,6 °C

Windgeschwindigkeit /
Windrichtung
Anklicken für Monats-Diagramm

---

66,2 km/h / W-SW

15:47
05.05.2015

8,8 km/h
W-SW

Helligkeit /
Sonnenschein
Anklicken für Monats-Diagramm
Anklicken für Monats-Diagramm

Sonnenschein:

155:48 Stunden

Max: 11:11 Std am
18.05.2015

108 klux

15:30
26.05.2015

31 klux

Solarstrahlung Anklicken für Monats-Diagramm

---

739 W/m²

15:30
26.05.2015

226 W/m²

Regenmenge
    Mai 2015
Anklicken für Monats-Diagramm

Insgesamt 15,5 l/m²

in 27:58 Stunden
an 18 Tagen

6,2 l/m²

16:15
03.05.2015

Gesamtmenge

15,5 l/m²

Regen-Tage
    Mai 2015
Anklicken für Monats-Diagramm

>   0 mm/Tag

>   2 mm/Tag

>   5 mm/Tag

> 10 mm/Tag

> 20 mm/Tag

18 Tage     
  1 Tag     
  1 Tag     
0 Tage     
0 Tage     

Eisige Tage Mai 2015 / 2014

Tmin ≤ -10°C     

0 Tage

/

0 Tage

Eistage Mai 2015 / 2014

Tmax <     0°C     

0 Tage

/

0 Tage

Frosttage Mai 2015 / 2014

Tmin ≤     0°C     

0 Tage

/

  1 Tag

Kalte Tage Mai 2015 / 2014

Tmax <   10°C     

0 Tage

/

0 Tage

Warme Tage Mai 2015 / 2014

Tmax ≥   20°C     

17 Tage

/

11 Tage

Sommertage Mai 2015 / 2014

Tmax ≥   25°C     

3 Tage

/

5 Tage

Heisse Tage Mai 2015 / 2014

Tmax ≥   30°C     

0 Tage

/

0 Tage


Monatsdiagramm Mai 2015

Die Kurven zeigen den Durchschnittswert des jeweiligen Tages an


Wetter-Monatsübersicht Mai 2015
Datum
  Temperatur
   Luftdruck
   Wind
  Regen
   Luftfeuchte
   Helligkeit

Sonnen-
schein

Ø
Temp.

Min.
Temp.

Max.
Temp.

Ø
Luftdruck

Min.
Luftdruck

Max.
Luftdruck

Ø-Geschw.
Haupt-Richtg.

Max.
Wind

Menge /
Dauer

Ø
Feuchte

Min.
Feuchte

Max.
Feuchte

Ø
Helligkeit

Max.
Helligkeit

1.
Mai
7,7 °C3,1 °C
04:38
13,3 °C
14:13
1009,0 hPa1006,3 hPa
17:08
1012,1 hPa
01:18
1,4 km/h
SO
15,2 km/h
14:43  
0,5 l/m²
35 Minuten
75 %48 %
14:43
91 %
09:58
18,8 klux66,4 klux
14:03
5 Min 
2.
Mai
9,0 °C0,5 °C
06:49
17,2 °C
15:09
1011,3 hPa1009,3 hPa
00:04
1013,8 hPa
08:04
2,3 km/h
NW
14,1 km/h
19:44  
---
66 %42 %
15:04
85 %
08:09
29,0 klux80,3 klux
10:49
3:55 Std 
3.
Mai
12,2 °C7,4 °C
04:10
16,1 °C
15:05
1006,1 hPa1003,8 hPa
18:40
1010,9 hPa
00:00
8,4 km/h
SW
27,9 km/h
22:51  
6,2 l/m²
4:20 Stunden
82 %70 %
00:00
89 %
22:26
13,4 klux72,6 klux
13:15
10 Min 
4.
Mai
17,3 °C13,0 °C
04:31
23,6 °C
15:21
1007,8 hPa1003,7 hPa
23:57
1010,1 hPa
09:06
12,1 km/h
W-SW
34,8 km/h
09:41  
0,5 l/m²
45 Minuten
70 %46 %
16:01
89 %
00:01
38,2 klux93,0 klux
13:06
7:15 Std 
5.
Mai
18,8 °C13,4 °C
23:47
24,4 °C
13:17
1003,4 hPa999,3 hPa
07:52
1011,3 hPa
23:47
21,1 km/h
W-SW
66,2 km/h
15:47  
0,3 l/m²
1:35 Stunden
65 %42 %
16:02
79 %
03:22
28,0 klux95,3 klux
13:17
4:15 Std 
6.
Mai
13,4 °C9,0 °C
05:57
18,4 °C
16:13
1013,4 hPa1011,3 hPa
00:02
1016,8 hPa
23:58
17,9 km/h
W-SW
50,3 km/h
16:02  
---
15 Minuten
59 %41 %
13:22
77 %
06:07
36,5 klux102,0 klux
13:37
8:50 Std 
7.
Mai
12,8 °C8,4 °C
06:13
19,2 °C
16:28
1018,1 hPa1016,8 hPa
00:03
1020,0 hPa
23:09
15,9 km/h
W
46,6 km/h
09:43  
---
59 %38 %
15:38
76 %
07:28
40 klux94 klux
14:13
9:00 Std 
8.
Mai
14,4 °C6,9 °C
03:58
23,8 °C
16:19
1015,5 hPa1012,1 hPa
16:19
1019,3 hPa
02:34
2,5 km/h
O
12,7 km/h
14:24  
---
36 Minuten
59 %32 %
16:39
79 %
07:44
33,6 klux89,5 klux
11:14
4:50 Std 
9.
Mai
14,8 °C9,2 °C
05:40
21,6 °C
16:40
1017,8 hPa1015,3 hPa
00:00
1023,0 hPa
23:46
15,7 km/h
W
50,0 km/h
17:10  
1,7 l/m²
1:05 Stunden
67 %46 %
17:40
83 %
22:56
33,6 klux101,0 klux
12:35
5:50 Std 
10.
Mai
14,2 °C9,2 °C
06:21
21,6 °C
17:51
1025,8 hPa1023,0 hPa
00:01
1027,7 hPa
11:51
11,3 km/h
W-SW
25,6 km/h
01:06  
---
66 %39 %
17:36
83 %
00:01
39 klux90 klux
14:41
8:39 Std 
11.
Mai
16,5 °C6,8 °C
06:57
26,8 °C
16:57
1023,1 hPa1019,0 hPa
18:12
1027,3 hPa
00:56
5,5 km/h
W-SW
23,5 km/h
17:17  
---
61 %33 %
16:47
83 %
08:02
36,0 klux75,6 klux
14:37
5:46 Std 
12.
Mai
18,1 °C12,1 °C
06:08
28,6 °C
15:23
1017,2 hPa1011,7 hPa
15:53
1021,7 hPa
23:59
12,9 km/h
NW
45,3 km/h
16:18  
---
63 %44 %
15:43
80 %
07:08
32,8 klux78,5 klux
13:58
4:31 Std 
13.
Mai
14,4 °C5,6 °C
06:24
24,4 °C
15:34
1018,2 hPa1010,9 hPa
21:09
1023,6 hPa
06:24
3,6 km/h
W-SW
21,7 km/h
16:29  
---
59 %32 %
15:24
80 %
08:24
37,6 klux87,1 klux
12:49
9:11 Std 
14.
Mai
14,0 °C6,5 °C
06:35
21,6 °C
16:55
1012,0 hPa1008,4 hPa
17:50
1015,2 hPa
07:20
3,6 km/h
NW
22,4 km/h
15:05  
0,2 l/m²
55 Minuten
61 %33 %
13:45
80 %
07:30
37,1 klux89,1 klux
14:40
7:45 Std 
15.
Mai
16,2 °C10,0 °C
07:45
25,1 °C
16:10
1013,5 hPa1009,4 hPa
03:00
1020,9 hPa
23:56
4,0 km/h
NO
20,7 km/h
12:30  
0,5 l/m²
55 Minuten
60 %35 %
15:30
83 %
08:00
36,5 klux84,2 klux
13:20
7:25 Std 
16.
Mai
10,9 °C4,7 °C
06:21
15,4 °C
11:41
1022,9 hPa1020,9 hPa
00:01
1025,0 hPa
23:47
9,3 km/h
W
29,4 km/h
10:26  
0,2 l/m²
1:26 Stunden
70 %50 %
13:01
83 %
23:07
22,7 klux80,2 klux
11:36
3:10 Std 
17.
Mai
13,2 °C6,4 °C
06:52
20,3 °C
16:42
1024,2 hPa1020,1 hPa
19:37
1027,7 hPa
06:52
6,3 km/h
W
28,3 km/h
14:57  
---
64 %40 %
14:57
87 %
08:12
37,5 klux92,3 klux
14:47
7:25 Std 
18.
Mai
14,6 °C5,4 °C
06:18
23,9 °C
16:53
1011,5 hPa1004,1 hPa
19:03
1020,8 hPa
00:08
12,1 km/h
W-SW
43,9 km/h
17:18  
---
58 %32 %
17:03
81 %
07:48
41,8 klux83,4 klux
13:43
11:11 Std 
19.
Mai
12,9 °C8,2 °C
08:09
17,6 °C
17:04
1008,0 hPa1003,9 hPa
01:14
1011,6 hPa
23:00
20,6 km/h
W
46,7 km/h
05:34  
0,3 l/m²
1:30 Stunden
57 %38 %
15:29
84 %
06:54
41,6 klux91,7 klux
14:59
9:30 Std 
20.
Mai
10,7 °C6,9 °C
23:56
16,6 °C
14:40
1014,2 hPa1010,5 hPa
00:00
1020,4 hPa
23:56
7,0 km/h
W-NW
33,5 km/h
15:30  
0,9 l/m²
2:36 Stunden
63 %45 %
18:50
79 %
08:15
31,1 klux97,6 klux
12:45
6:00 Std 
21.
Mai
10,6 °C2,4 °C
06:11
19,3 °C
16:41
1024,1 hPa1020,4 hPa
00:01
1027,4 hPa
23:57
5,7 km/h
NW
27,3 km/h
16:56  
---
61 %37 %
16:46
83 %
08:21
38,5 klux98,3 klux
12:41
8:45 Std 
22.
Mai
13,1 °C4,1 °C
06:32
23,2 °C
15:42
1025,1 hPa1020,9 hPa
18:42
1028,0 hPa
06:32
2,3 km/h
NW
24,6 km/h
15:02  
---
58 %34 %
15:22
77 %
07:02
35,2 klux90,5 klux
14:22
5:25 Std 
23.
Mai
15,1 °C10,8 °C
05:37
21,0 °C
14:13
1019,9 hPa1017,8 hPa
17:03
1022,7 hPa
00:37
3,6 km/h
NW
14,8 km/h
14:03  
---
64 %48 %
14:13
76 %
08:33
19,3 klux75,5 klux
13:38
20 Min 
24.
Mai
15,9 °C11,5 °C
06:28
22,2 °C
15:38
1018,2 hPa1015,7 hPa
17:53
1019,8 hPa
06:28
2,3 km/h
W-SW
17,8 km/h
16:23  
0,6 l/m²
55 Minuten
69 %50 %
15:23
80 %
07:13
23,7 klux84,3 klux
14:28
1:05 Std 
25.
Mai
14,1 °C11,2 °C
05:59
18,3 °C
13:04
1014,7 hPa1012,9 hPa
15:54
1016,5 hPa
02:39
5,5 km/h
NW
25,6 km/h
13:19  
0,2 l/m²
2:55 Stunden
75 %55 %
12:59
88 %
06:59
21,7 klux96,2 klux
12:44
50 Min 
26.
Mai
11,1 °C7,7 °C
23:56
17,1 °C
14:00
1018,9 hPa1014,5 hPa
00:00
1023,4 hPa
23:56
8,3 km/h
NW
27,3 km/h
14:25  
---
66 %40 %
14:00
83 %
06:35
25,1 klux108,0 klux
15:30
1:45 Std 
27.
Mai
9,4 °C3,1 °C
04:36
14,7 °C
15:31
1023,8 hPa1021,3 hPa
23:07
1025,8 hPa
07:11
3,4 km/h
NW
15,0 km/h
15:21  
---
66 %47 %
15:36
84 %
07:21
22 klux95 klux
11:06
55 Min 
28.
Mai
13,0 °C5,6 °C
03:12
20,7 °C
13:42
1016,0 hPa1012,7 hPa
16:57
1021,5 hPa
00:47
12,3 km/h
W-SW
43,8 km/h
13:47  
0,8 l/m²
2:00 Stunden
64 %46 %
13:42
79 %
23:38
24,3 klux102,0 klux
13:37
2:30 Std 
29.
Mai
12,3 °C7,6 °C
06:03
16,0 °C
14:48
1011,7 hPa1008,0 hPa
19:13
1014,9 hPa
03:33
7,9 km/h
W-SW
33,0 km/h
19:38  
0,8 l/m²
1:40 Stunden
74 %59 %
12:38
85 %
07:43
21 klux76 klux
12:23
1:55 Std 
30.
Mai
11,5 °C7,2 °C
23:55
16,1 °C
16:04
1014,0 hPa1008,3 hPa
01:04
1018,3 hPa
23:55
15,7 km/h
W
39,3 km/h
02:04  
1,8 l/m²
2:25 Stunden
67 %45 %
15:59
87 %
06:59
29,2 klux90,2 klux
14:24
5:05 Std 
31.
Mai
13,2 °C4,3 °C
05:15
21,9 °C
16:30
1014,6 hPa1011,3 hPa
16:30
1018,6 hPa
03:30
13,0 km/h
W-SW
39,7 km/h
17:20  
0,3 l/m²
1:30 Stunden
67 %47 %
16:20
84 %
08:15
28,9 klux94,5 klux
15:45
2:30 Std 



Mai
2015

Temperatur

  

Luftdruck

  

Wind

  

Regen

  

Luftfeuchte

  

Helligkeit

Sonnen-
schein

Ø

Min

Max

Ø

Min

Max

Ø

Max

Max

Ø

Min

Max

Ø

Max

Max

13,4 °C

0,5 °C

06:49 Uhr
02.05.2015

28,6 °C

15:23 Uhr
12.05.2015

1015,9 hPa

999,3 hPa

07:52 Uhr
05.05.2015

1028,0 hPa

06:32 Uhr
22.05.2015

8,8 km/h

W-SW

66,2 km/h

15:47 Uhr
05.05.2015

6,2 l/m²

4:20 Stunden
03.05.2015

65 %

32 %

16:39 Uhr
08.05.2015

91 %

09:58 Uhr
01.05.2015

30,8 klux

108,0 klux

15:30 Uhr
26.05.2015

11:11 Std

am
18.05.2015

Gesamt

Gesamt

15,5 l/m²

18 Tage
27:58 h

155:48 Std


Wetter-Diagramme Mai 2015     Heinzenberg / Taunus   
TemperaturLuftfeuchte
SolarstrahlungLuftdruck
HelligkeitSonnenschein
RegenmengeRegendauer
Wind-GeschwindigkeitWind-Richtung